| time (UTC) | temp F | wind direction | speed knots | gust knots | rain 1hr in | rain 24hr in | rain mn in | humidity % | barometer mb |
| 20260507004058 | 52 | 94 | 2.6 | 5.2 | 0.00 | 0.00 | 0.00 | 45 | 1014.8 |
| 20260507003558 | 52 | 94 | 0.9 | 9.6 | 0.00 | 0.00 | 0.00 | 43 | 1014.8 |
| 20260507003058 | 52 | 94 | 1.7 | 13.0 | 0.00 | 0.00 | 0.00 | 43 | 1014.7 |
| 20260507002558 | 53 | 94 | 1.7 | 13.0 | 0.00 | 0.00 | 0.00 | 43 | 1015.0 |
| 20260507002058 | 53 | 94 | 0.9 | 9.6 | 0.00 | 0.00 | 0.00 | 43 | 1014.8 |
| 20260507000558 | 54 | 94 | 0.0 | 12.2 | 0.00 | 0.00 | 0.00 | 41 | 1014.9 |
| 20260506235557 | 55 | 94 | 2.6 | 10.4 | 0.00 | 0.00 | 0.00 | 41 | 1014.8 |
| 20260506235057 | 54 | 94 | 4.3 | 10.4 | 0.00 | 0.00 | 0.00 | 40 | 1014.6 |
| 20260506234557 | 54 | 94 | 2.6 | 10.4 | 0.00 | 0.00 | 0.00 | 41 | 1014.8 |
| 20260506234057 | 53 | 94 | 3.5 | 12.2 | 0.00 | 0.00 | 0.00 | 41 | 1014.7 |
| 20260506233557 | 54 | 94 | 1.7 | 12.2 | 0.00 | 0.00 | 0.00 | 42 | 1014.8 |
| 20260506233057 | 54 | 94 | 5.2 | 11.3 | 0.00 | 0.00 | 0.00 | 41 | 1014.7 |
| 20260506232557 | 55 | 94 | 3.5 | 10.4 | 0.00 | 0.00 | 0.00 | 40 | 1014.8 |
| 20260506232057 | 55 | 94 | 6.1 | 9.6 | 0.00 | 0.00 | 0.00 | 40 | 1014.8 |
| 20260506231557 | 56 | 94 | 1.7 | 13.9 | 0.00 | 0.00 | 0.00 | 40 | 1014.8 |
| 20260506230557 | 55 | 94 | 9.6 | 9.6 | 0.00 | 0.00 | 0.00 | 42 | 1014.6 |
| 20260506225557 | 55 | 94 | 2.6 | 8.7 | 0.00 | 0.00 | 0.00 | 43 | 1014.6 |
| 20260506225056 | 55 | 94 | 0.9 | 13.9 | 0.00 | 0.00 | 0.00 | 42 | 1014.7 |
| 20260506224557 | 55 | 94 | 4.3 | 13.9 | 0.00 | 0.00 | 0.00 | 42 | 1014.6 |
| 20260506224057 | 55 | 94 | 4.3 | 9.6 | 0.00 | 0.00 | 0.00 | 43 | 1014.6 |
| 20260506223556 | 54 | 94 | 8.7 | 9.6 | 0.00 | 0.00 | 0.00 | 44 | 1014.6 |
| 20260506222556 | 54 | 94 | 2.6 | 11.3 | 0.00 | 0.00 | 0.00 | 43 | 1014.7 |
| 20260506221556 | 55 | 94 | 7.0 | 14.8 | 0.00 | 0.00 | 0.00 | 42 | 1014.7 |
| 20260506221056 | 55 | 94 | 4.3 | 13.9 | 0.00 | 0.00 | 0.00 | 40 | 1014.7 |
| 20260506220556 | 55 | 94 | 5.2 | 13.9 | 0.00 | 0.00 | 0.00 | 41 | 1014.7 |
| 20260506220056 | 55 | 94 | 5.2 | 13.0 | 0.00 | 0.00 | 0.00 | 42 | 1014.6 |
| 20260506215556 | 55 | 94 | 5.2 | 18.2 | 0.00 | 0.00 | 0.00 | 43 | 1014.6 |
| 20260506214556 | 55 | 94 | 6.1 | 13.0 | 0.00 | 0.00 | 0.00 | 43 | 1014.5 |
| 20260506214056 | 54 | 94 | 7.0 | 12.2 | 0.00 | 0.00 | 0.00 | 43 | 1014.6 |
| 20260506213056 | 54 | 94 | 0.9 | 11.3 | 0.00 | 0.00 | 0.00 | 42 | 1014.7 |
| 20260506212556 | 55 | 94 | 1.7 | 13.9 | 0.00 | 0.00 | 0.00 | 42 | 1014.6 |
| 20260506212056 | 55 | 94 | 3.5 | 13.9 | 0.00 | 0.00 | 0.00 | 43 | 1014.6 |
| 20260506211055 | 55 | 94 | 5.2 | 15.6 | 0.00 | 0.00 | 0.00 | 42 | 1014.7 |
| 20260506205555 | 56 | 94 | 2.6 | 11.3 | 0.00 | 0.00 | 0.00 | 42 | 1014.8 |
| 20260506205055 | 55 | 94 | 1.7 | 12.2 | 0.00 | 0.00 | 0.00 | 42 | 1014.8 |
| 20260506204555 | 55 | 94 | 2.6 | 15.6 | 0.00 | 0.00 | 0.00 | 42 | 1014.8 |
| 20260506203555 | 56 | 94 | 0.9 | 13.0 | 0.00 | 0.00 | 0.00 | 41 | 1015.0 |
| 20260506203055 | 56 | 94 | 2.6 | 12.2 | 0.00 | 0.00 | 0.00 | 43 | 1014.9 |
| 20260506202555 | 55 | 94 | 5.2 | 13.0 | 0.00 | 0.00 | 0.00 | 42 | 1014.9 |
| 20260506202055 | 56 | 94 | 3.5 | 13.0 | 0.00 | 0.00 | 0.00 | 42 | 1014.9 |
| 20260506201555 | 56 | 94 | 3.5 | 13.9 | 0.00 | 0.00 | 0.00 | 40 | 1014.9 |
| 20260506201054 | 56 | 94 | 5.2 | 13.9 | 0.00 | 0.00 | 0.00 | 41 | 1015.0 |
| 20260506200054 | 56 | 94 | 0.9 | 14.8 | 0.00 | 0.00 | 0.00 | 41 | 1014.9 |
| 20260506195554 | 56 | 94 | 0.9 | 19.1 | 0.00 | 0.00 | 0.00 | 41 | 1014.9 |
| 20260506195054 | 56 | 94 | 1.7 | 19.1 | 0.00 | 0.00 | 0.00 | 40 | 1014.9 |
| 20260506194554 | 57 | 94 | 1.7 | 14.8 | 0.00 | 0.00 | 0.00 | 39 | 1014.9 |
| 20260506194054 | 57 | 94 | 2.6 | 15.6 | 0.00 | 0.00 | 0.00 | 43 | 1015.0 |
| 20260506193554 | 57 | 94 | 5.2 | 15.6 | 0.00 | 0.00 | 0.00 | 41 | 1014.9 |
| 20260506193054 | 57 | 94 | 1.7 | 16.5 | 0.00 | 0.00 | 0.00 | 41 | 1014.9 |
| 20260506192554 | 56 | 94 | 1.7 | 16.5 | 0.00 | 0.00 | 0.00 | 42 | 1014.8 |
| 20260506192054 | 56 | 94 | 7.8 | 10.4 | 0.00 | 0.00 | 0.00 | 42 | 1014.9 |
| 20260506191554 | 56 | 94 | 0.9 | 10.4 | 0.00 | 0.00 | 0.00 | 42 | 1014.9 |
| 20260506191054 | 55 | 94 | 3.5 | 13.9 | 0.00 | 0.00 | 0.00 | 41 | 1014.9 |
| 20260506190554 | 55 | 94 | 5.2 | 14.8 | 0.00 | 0.00 | 0.00 | 40 | 1014.9 |
| 20260506190054 | 56 | 94 | 2.6 | 14.8 | 0.00 | 0.00 | 0.00 | 41 | 1015.1 |
| 20260506185554 | 56 | 94 | 3.5 | 14.8 | 0.00 | 0.00 | 0.00 | 42 | 1014.9 |
| 20260506185053 | 56 | 94 | 8.7 | 13.9 | 0.00 | 0.00 | 0.00 | 41 | 1015.1 |
| 20260506184553 | 56 | 94 | 5.2 | 13.0 | 0.00 | 0.00 | 0.00 | 41 | 1015.0 |
| 20260506184053 | 56 | 94 | 7.0 | 13.0 | 0.00 | 0.00 | 0.00 | 43 | 1015.2 |
| 20260506183053 | 56 | 94 | 7.0 | 15.6 | 0.00 | 0.00 | 0.00 | 41 | 1015.1 |
| 20260506182553 | 56 | 94 | 3.5 | 13.9 | 0.00 | 0.00 | 0.00 | 41 | 1015.2 |
| 20260506182053 | 56 | 94 | 11.3 | 13.9 | 0.00 | 0.00 | 0.00 | 41 | 1015.0 |
| 20260506181553 | 56 | 94 | 4.3 | 13.0 | 0.00 | 0.00 | 0.00 | 44 | 1015.2 |
| 20260506181053 | 55 | 94 | 4.3 | 13.0 | 0.00 | 0.00 | 0.00 | 42 | 1015.1 |
| 20260506180053 | 56 | 94 | 2.6 | 14.8 | 0.00 | 0.00 | 0.00 | 42 | 1015.0 |
| 20260506175053 | 55 | 94 | 6.1 | 15.6 | 0.00 | 0.00 | 0.00 | 41 | 1015.4 |
| 20260506174553 | 55 | 94 | 7.8 | 15.6 | 0.00 | 0.00 | 0.00 | 43 | 1015.2 |
| 20260506174053 | 54 | 94 | 4.3 | 14.8 | 0.00 | 0.00 | 0.00 | 45 | 1015.4 |
| 20260506173553 | 54 | 94 | 7.0 | 13.9 | 0.00 | 0.00 | 0.00 | 42 | 1015.3 |
| 20260506173053 | 54 | 94 | 7.8 | 14.8 | 0.00 | 0.00 | 0.00 | 42 | 1015.5 |
| 20260506172053 | 54 | 94 | 5.2 | 13.9 | 0.00 | 0.00 | 0.00 | 41 | 1015.2 |
| 20260506171552 | 55 | 94 | 9.6 | 13.0 | 0.00 | 0.00 | 0.00 | 41 | 1015.3 |
| 20260506171052 | 55 | 94 | 2.6 | 12.2 | 0.00 | 0.00 | 0.00 | 42 | 1015.2 |
| 20260506170553 | 54 | 94 | 4.3 | 13.9 | 0.00 | 0.00 | 0.00 | 41 | 1015.2 |
| 20260506170053 | 54 | 94 | 1.7 | 13.9 | 0.00 | 0.00 | 0.00 | 39 | 1015.2 |
| 20260506165553 | 54 | 94 | 4.3 | 13.9 | 0.00 | 0.00 | 0.00 | 42 | 1015.4 |
| 20260506165052 | 54 | 94 | 2.6 | 14.8 | 0.00 | 0.00 | 0.00 | 39 | 1015.4 |
| 20260506164052 | 54 | 94 | 3.5 | 11.3 | 0.00 | 0.00 | 0.00 | 43 | 1015.4 |
| 20260506163552 | 54 | 94 | 5.2 | 13.0 | 0.00 | 0.00 | 0.00 | 44 | 1015.4 |
| 20260506162552 | 53 | 94 | 2.6 | 13.9 | 0.00 | 0.00 | 0.00 | 42 | 1015.5 |
| 20260506162052 | 53 | 94 | 4.3 | 13.0 | 0.00 | 0.00 | 0.00 | 43 | 1015.5 |
| 20260506161052 | 54 | 94 | 2.6 | 11.3 | 0.00 | 0.00 | 0.00 | 41 | 1015.4 |
| 20260506160552 | 54 | 94 | 2.6 | 11.3 | 0.00 | 0.00 | 0.00 | 44 | 1015.5 |
| 20260506160051 | 54 | 94 | 6.1 | 11.3 | 0.00 | 0.00 | 0.00 | 42 | 1015.5 |
| 20260506155552 | 53 | 94 | 0.9 | 10.4 | 0.00 | 0.00 | 0.00 | 44 | 1015.5 |
| 20260506155052 | 53 | 94 | 0.9 | 10.4 | 0.00 | 0.00 | 0.00 | 43 | 1015.6 |
| 20260506154552 | 53 | 94 | 2.6 | 11.3 | 0.00 | 0.00 | 0.00 | 45 | 1015.6 |
| 20260506154052 | 52 | 94 | 2.6 | 13.0 | 0.00 | 0.00 | 0.00 | 46 | 1015.5 |
| 20260506153051 | 52 | 94 | 2.6 | 16.5 | 0.00 | 0.00 | 0.00 | 47 | 1015.4 |
| 20260506152551 | 52 | 94 | 10.4 | 12.2 | 0.00 | 0.00 | 0.00 | 46 | 1015.3 |
| 20260506152052 | 51 | 94 | 3.5 | 11.3 | 0.00 | 0.00 | 0.00 | 49 | 1015.3 |
| 20260506151551 | 51 | 94 | 5.2 | 11.3 | 0.00 | 0.00 | 0.00 | 49 | 1015.1 |
| 20260506150551 | 51 | 94 | 1.7 | 10.4 | 0.00 | 0.00 | 0.00 | 50 | 1015.2 |
| 20260506150051 | 51 | 94 | 3.5 | 12.2 | 0.00 | 0.00 | 0.00 | 52 | 1015.1 |
| 20260506145551 | 50 | 94 | 3.5 | 12.2 | 0.00 | 0.00 | 0.00 | 51 | 1015.1 |
| 20260506145051 | 50 | 94 | 5.2 | 10.4 | 0.00 | 0.00 | 0.00 | 53 | 1015.1 |
| 20260506144550 | 49 | 94 | 3.5 | 11.3 | 0.00 | 0.00 | 0.00 | 56 | 1015.1 |
| 20260506144051 | 49 | 94 | 7.0 | 11.3 | 0.00 | 0.00 | 0.00 | 55 | 1015.0 |
| 20260506143550 | 49 | 94 | 6.1 | 8.7 | 0.00 | 0.00 | 0.00 | 56 | 1014.9 |
| 20260506143051 | 48 | 94 | 6.1 | 8.7 | 0.00 | 0.00 | 0.00 | 55 | 1014.9 |
| 20260506142550 | 48 | 94 | 4.3 | 7.8 | 0.00 | 0.00 | 0.00 | 56 | 1014.9 |
| 20260506142051 | 48 | 94 | 2.6 | 7.8 | 0.00 | 0.00 | 0.00 | 55 | 1014.9 |
| 20260506141551 | 48 | 94 | 3.5 | 8.7 | 0.00 | 0.00 | 0.00 | 56 | 1014.9 |
| 20260506141050 | 48 | 94 | 2.6 | 8.7 | 0.00 | 0.00 | 0.00 | 57 | 1014.9 |
| 20260506140050 | 48 | 94 | 1.7 | 7.8 | 0.00 | 0.00 | 0.00 | 60 | 1015.0 |
| 20260506135550 | 47 | 94 | 1.7 | 11.3 | 0.00 | 0.00 | 0.00 | 60 | 1014.9 |
| 20260506135050 | 47 | 94 | 3.5 | 11.3 | 0.00 | 0.00 | 0.00 | 60 | 1015.0 |
| 20260506134550 | 47 | 94 | 0.0 | 9.6 | 0.00 | 0.00 | 0.00 | 60 | 1014.8 |
| 20260506133550 | 46 | 94 | 0.9 | 7.8 | 0.00 | 0.00 | 0.00 | 63 | 1014.9 |
| 20260506133050 | 46 | 94 | 1.7 | 7.0 | 0.00 | 0.00 | 0.00 | 63 | 1014.8 |
| 20260506132549 | 46 | 94 | 0.9 | 6.1 | 0.00 | 0.00 | 0.00 | 64 | 1014.7 |
| 20260506132050 | 46 | 94 | 0.9 | 7.8 | 0.00 | 0.00 | 0.00 | 64 | 1014.8 |
| 20260506131549 | 46 | 94 | 1.7 | 7.8 | 0.00 | 0.00 | 0.00 | 64 | 1014.8 |
| 20260506131049 | 45 | 94 | 3.5 | 7.0 | 0.00 | 0.00 | 0.00 | 65 | 1014.7 |
| 20260506130549 | 45 | 94 | 1.7 | 7.8 | 0.00 | 0.00 | 0.00 | 66 | 1014.6 |
| 20260506130049 | 45 | 94 | 5.2 | 7.8 | 0.00 | 0.00 | 0.00 | 66 | 1014.5 |
| 20260506125549 | 45 | 94 | 1.7 | 7.0 | 0.00 | 0.00 | 0.00 | 68 | 1014.5 |
| 20260506125049 | 44 | 94 | 1.7 | 7.0 | 0.00 | 0.00 | 0.00 | 69 | 1014.5 |
| 20260506124550 | 44 | 94 | 2.6 | 6.1 | 0.00 | 0.00 | 0.00 | 72 | 1014.3 |
| 20260506124049 | 44 | 94 | 2.6 | 5.2 | 0.00 | 0.00 | 0.00 | 72 | 1014.2 |
| 20260506123549 | 43 | 94 | 5.2 | 5.2 | 0.00 | 0.00 | 0.00 | 72 | 1014.1 |
| 20260506123049 | 43 | 94 | 0.0 | 4.3 | 0.00 | 0.00 | 0.00 | 74 | 1014.1 |
| 20260506122049 | 42 | 94 | 0.9 | 3.5 | 0.00 | 0.00 | 0.00 | 76 | 1013.7 |
| 20260506121549 | 42 | 94 | 0.0 | 3.5 | 0.00 | 0.00 | 0.00 | 75 | 1013.5 |
| 20260506121048 | 42 | 94 | 0.0 | 3.5 | 0.00 | 0.00 | 0.00 | 75 | 1013.6 |
| 20260506120548 | 42 | 94 | 0.0 | 3.5 | 0.00 | 0.00 | 0.00 | 75 | 1013.6 |
| 20260506120048 | 42 | 94 | 0.0 | 3.5 | 0.00 | 0.00 | 0.00 | 76 | 1013.6 |
| 20260506115548 | 41 | 94 | 1.7 | 3.5 | 0.00 | 0.00 | 0.00 | 76 | 1013.6 |
| 20260506114548 | 41 | 94 | 1.7 | 2.6 | 0.00 | 0.00 | 0.00 | 77 | 1013.3 |
| 20260506113548 | 40 | 94 | 0.0 | 2.6 | 0.00 | 0.03 | 0.00 | 78 | 1012.8 |
| 20260506113048 | 40 | 94 | 0.0 | 2.6 | 0.00 | 0.03 | 0.00 | 79 | 1012.7 |
| 20260506112548 | 40 | 94 | 0.0 | 1.7 | 0.00 | 0.03 | 0.00 | 79 | 1012.6 |
| 20260506112048 | 40 | 94 | 0.0 | 1.7 | 0.00 | 0.03 | 0.00 | 79 | 1012.5 |
| 20260506111548 | 40 | 94 | 0.0 | 2.6 | 0.00 | 0.03 | 0.00 | 79 | 1012.5 |
| 20260506111048 | 40 | 94 | 0.0 | 2.6 | 0.00 | 0.03 | 0.00 | 79 | 1012.4 |
| 20260506110548 | 40 | 94 | 0.9 | 1.7 | 0.00 | 0.03 | 0.00 | 79 | 1012.4 |
| 20260506110048 | 39 | 94 | 0.9 | 1.7 | 0.00 | 0.03 | 0.00 | 80 | 1012.3 |
| 20260506105548 | 39 | 94 | 0.9 | 0.9 | 0.00 | 0.03 | 0.00 | 80 | 1012.3 |
| 20260506105048 | 39 | 94 | 0.9 | 0.9 | 0.00 | 0.03 | 0.00 | 79 | 1012.3 |
| 20260506104547 | 39 | 94 | 0.0 | 0.9 | 0.00 | 0.03 | 0.00 | 79 | 1012.4 |
| 20260506104048 | 40 | 94 | 0.0 | 0.9 | 0.00 | 0.03 | 0.00 | 78 | 1012.3 |
| 20260506103547 | 40 | 94 | 0.0 | 0.9 | 0.00 | 0.03 | 0.00 | 78 | 1012.3 |
| 20260506103047 | 40 | 94 | 0.0 | 0.9 | 0.00 | 0.03 | 0.00 | 78 | 1012.3 |
| 20260506102547 | 40 | 94 | 0.0 | 0.9 | 0.00 | 0.03 | 0.00 | 78 | 1012.3 |
| 20260506102047 | 39 | 94 | 0.9 | 0.9 | 0.00 | 0.03 | 0.00 | 79 | 1012.4 |
| 20260506101047 | 39 | 94 | 0.0 | 0.9 | 0.00 | 0.03 | 0.00 | 80 | 1012.4 |
| 20260506100547 | 39 | 94 | 0.0 | 0.0 | 0.00 | 0.03 | 0.00 | 78 | 1012.4 |
| 20260506100117 | 40 | 94 | 0.0 | 0.0 | 0.00 | 0.03 | 0.00 | 78 | 1012.2 |
| 20260506095547 | 40 | 94 | 0.0 | 0.0 | 0.00 | 0.03 | 0.00 | 78 | 1012.3 |
| 20260506094547 | 41 | 94 | 0.0 | 0.9 | 0.00 | 0.03 | 0.00 | 76 | 1012.2 |
| 20260506094047 | 41 | 94 | 0.0 | 0.9 | 0.00 | 0.03 | 0.00 | 76 | 1012.2 |
| 20260506093547 | 41 | 94 | 0.0 | 0.9 | 0.00 | 0.03 | 0.00 | 75 | 1012.1 |
| 20260506093117 | 42 | 94 | 0.0 | 0.9 | 0.00 | 0.03 | 0.00 | 75 | 1012.1 |
| 20260506092617 | 42 | 94 | 0.0 | 0.9 | 0.00 | 0.03 | 0.00 | 74 | 1012.1 |
| 20260506091117 | 42 | 94 | 0.0 | 0.9 | 0.00 | 0.03 | 0.00 | 73 | 1011.7 |
| 20260506090616 | 42 | 94 | 0.9 | 0.9 | 0.00 | 0.03 | 0.00 | 73 | 1011.7 |
| 20260506085116 | 43 | 94 | 0.0 | 0.0 | 0.00 | 0.03 | 0.00 | 71 | 1011.7 |
| 20260506084616 | 43 | 94 | 0.0 | 0.0 | 0.00 | 0.03 | 0.00 | 70 | 1011.8 |
| 20260506084116 | 43 | 94 | 0.0 | 0.0 | 0.00 | 0.03 | 0.00 | 69 | 1011.7 |
| 20260506083616 | 43 | 94 | 0.0 | 0.0 | 0.00 | 0.03 | 0.00 | 69 | 1011.6 |
| 20260506083116 | 43 | 94 | 0.0 | 0.0 | 0.00 | 0.03 | 0.00 | 68 | 1011.7 |
| 20260506082616 | 44 | 94 | 0.0 | 0.9 | 0.00 | 0.03 | 0.00 | 66 | 1011.7 |
| 20260506082116 | 44 | 94 | 0.0 | 0.9 | 0.00 | 0.03 | 0.00 | 66 | 1011.8 |
| 20260506081616 | 44 | 94 | 0.0 | 0.9 | 0.00 | 0.03 | 0.00 | 66 | 1011.8 |
| 20260506081116 | 44 | 94 | 0.0 | 0.9 | 0.00 | 0.03 | 0.00 | 65 | 1011.8 |
| 20260506080616 | 44 | 94 | 0.0 | 0.9 | 0.00 | 0.03 | 0.00 | 65 | 1011.6 |
| 20260506073115 | 45 | 94 | 0.0 | 0.9 | 0.00 | 0.03 | 0.00 | 64 | 1011.7 |
| 20260506072615 | 45 | 94 | 0.0 | 0.9 | 0.00 | 0.03 | 0.00 | 64 | 1011.7 |
| 20260506071615 | 45 | 94 | 0.0 | 0.9 | 0.00 | 0.03 | 0.00 | 63 | 1011.7 |
| 20260506071115 | 45 | 94 | 0.0 | 1.7 | 0.00 | 0.03 | 0.00 | 63 | 1011.7 |
| 20260506070115 | 45 | 94 | 0.0 | 1.7 | 0.00 | 0.03 | 0.00 | 62 | 1011.6 |
| 20260506062114 | 47 | 94 | 0.9 | 2.6 | 0.00 | 0.03 | 0.00 | 61 | 1011.4 |
| 20260506061614 | 47 | 94 | 1.7 | 3.5 | 0.00 | 0.03 | 0.00 | 60 | 1011.2 |
| 20260506060614 | 47 | 94 | 0.0 | 2.6 | 0.00 | 0.03 | 0.00 | 60 | 1011.2 |
| 20260506060114 | 47 | 94 | 0.0 | 2.6 | 0.00 | 0.03 | 0.00 | 60 | 1011.2 |
| 20260506050613 | 49 | 94 | 0.0 | 2.6 | 0.00 | 0.03 | 0.00 | 60 | 1011.1 |
| 20260506050113 | 49 | 94 | 0.9 | 1.7 | 0.00 | 0.03 | 0.00 | 61 | 1010.8 |
| 20260506045113 | 50 | 94 | 0.9 | 3.5 | 0.00 | 0.03 | 0.03 | 60 | 1010.6 |
| 20260506044613 | 50 | 94 | 0.0 | 3.5 | 0.00 | 0.03 | 0.03 | 60 | 1010.5 |
| 20260506043613 | 50 | 94 | 0.0 | 4.3 | 0.00 | 0.03 | 0.03 | 60 | 1010.5 |
| 20260506043113 | 50 | 94 | 0.9 | 4.3 | 0.00 | 0.03 | 0.03 | 62 | 1010.6 |
| 20260506042613 | 50 | 94 | 0.0 | 2.6 | 0.00 | 0.03 | 0.03 | 64 | 1010.6 |
| 20260506042113 | 49 | 94 | 0.0 | 2.6 | 0.00 | 0.03 | 0.03 | 64 | 1010.5 |
| 20260506041613 | 49 | 94 | 0.0 | 0.9 | 0.00 | 0.03 | 0.03 | 67 | 1010.4 |
| 20260506041113 | 49 | 94 | 0.0 | 0.9 | 0.00 | 0.03 | 0.03 | 67 | 1010.4 |
| 20260506040612 | 49 | 94 | 0.0 | 0.9 | 0.00 | 0.03 | 0.03 | 67 | 1010.4 |
| 20260506040112 | 50 | 94 | 0.0 | 0.0 | 0.00 | 0.03 | 0.03 | 67 | 1010.6 |
| 20260506034612 | 50 | 94 | 0.9 | 1.7 | 0.00 | 0.03 | 0.03 | 66 | 1010.6 |
| 20260506034112 | 50 | 94 | 0.0 | 1.7 | 0.00 | 0.03 | 0.03 | 67 | 1010.5 |
| 20260506033612 | 50 | 94 | 0.0 | 1.7 | 0.00 | 0.03 | 0.03 | 67 | 1010.5 |
| 20260506033112 | 50 | 94 | 0.9 | 1.7 | 0.00 | 0.03 | 0.03 | 67 | 1010.5 |
| 20260506032612 | 50 | 94 | 0.9 | 0.9 | 0.00 | 0.03 | 0.03 | 67 | 1010.4 |
| 20260506032112 | 50 | 94 | 0.9 | 3.5 | 0.00 | 0.03 | 0.03 | 66 | 1010.4 |
| 20260506031612 | 50 | 94 | 0.0 | 3.5 | 0.00 | 0.03 | 0.03 | 66 | 1010.4 |
| 20260506030612 | 50 | 94 | 0.0 | 0.9 | 0.00 | 0.03 | 0.03 | 68 | 1010.4 |
| 20260506030112 | 50 | 94 | 0.0 | 0.9 | 0.00 | 0.03 | 0.03 | 67 | 1010.3 |
| 20260506025612 | 49 | 94 | 0.0 | 0.9 | 0.00 | 0.03 | 0.03 | 67 | 1010.0 |
| 20260506025111 | 50 | 94 | 0.0 | 0.9 | 0.00 | 0.03 | 0.03 | 67 | 1010.1 |
| 20260506024612 | 49 | 94 | 0.0 | 0.9 | 0.00 | 0.03 | 0.03 | 67 | 1009.9 |
| 20260506024111 | 49 | 94 | 0.0 | 0.9 | 0.00 | 0.03 | 0.03 | 67 | 1009.8 |
| 20260506023611 | 49 | 94 | 0.0 | 0.9 | 0.00 | 0.03 | 0.03 | 67 | 1009.6 |
| 20260506023112 | 49 | 94 | 0.0 | 0.9 | 0.00 | 0.03 | 0.03 | 66 | 1009.5 |
| 20260506022612 | 50 | 94 | 0.0 | 0.9 | 0.00 | 0.03 | 0.03 | 66 | 1009.5 |
| 20260506022111 | 50 | 94 | 0.0 | 0.9 | 0.00 | 0.03 | 0.03 | 66 | 1009.4 |
| 20260506021111 | 50 | 94 | 0.0 | 0.9 | 0.00 | 0.03 | 0.03 | 65 | 1009.2 |
| 20260506020611 | 50 | 94 | 0.0 | 0.9 | 0.00 | 0.03 | 0.03 | 64 | 1009.2 |
| 20260506020111 | 50 | 94 | 0.0 | 0.9 | 0.00 | 0.03 | 0.03 | 64 | 1009.2 |
| 20260506015611 | 50 | 94 | 0.0 | 0.9 | 0.00 | 0.03 | 0.03 | 64 | 1009.0 |
| 20260506013611 | 51 | 94 | 0.0 | 0.9 | 0.00 | 0.03 | 0.03 | 61 | 1008.7 |
| 20260506013111 | 51 | 94 | 0.0 | 1.7 | 0.00 | 0.03 | 0.03 | 60 | 1008.8 |
| 20260506012611 | 51 | 94 | 0.0 | 1.7 | 0.00 | 0.03 | 0.03 | 60 | 1008.8 |
| 20260506012111 | 51 | 94 | 0.0 | 0.9 | 0.00 | 0.03 | 0.03 | 61 | 1008.6 |
| 20260506011610 | 51 | 94 | 0.0 | 0.9 | 0.00 | 0.03 | 0.03 | 60 | 1008.6 |
| 20260506011110 | 51 | 94 | 0.0 | 0.0 | 0.00 | 0.03 | 0.03 | 60 | 1008.6 |
| 20260506010611 | 52 | 94 | 0.0 | 0.0 | 0.00 | 0.03 | 0.03 | 58 | 1008.6 |
| 20260506010111 | 53 | 94 | 0.0 | 0.0 | 0.00 | 0.03 | 0.03 | 56 | 1008.5 |
| 20260506005610 | 53 | 94 | 0.0 | 0.9 | 0.00 | 0.03 | 0.03 | 54 | 1008.5 |
| 20260506005110 | 54 | 94 | 0.0 | 0.9 | 0.00 | 0.03 | 0.03 | 54 | 1008.6 |
| 20260506004610 | 54 | 94 | 0.0 | 0.9 | 0.00 | 0.03 | 0.03 | 54 | 1008.5 |